Temperature
8 8 8 8 7 7 7 7 6 5 5 6 6 5 5 5 5 5 4 4 4 4 4 4 4 4 4 4 3 3 3 3 3 3 3 3 3 3
7 7 7 7 7 7 7 6 6 6 5 5 5 5 5 4 4 4 4 4 4 4 4 4 4 4 4 3 3 3 3 3 3 3 2 2 2 2
7 7 7 7 7 6 6 6 6 5 5 5 5 5 4 4 4 4 4 4 4 4 4 4 4 3 3 3 3 3 2 2 2 2 2 2 2 2
6 6 6 6 6 6 6 6 5 5 5 5 5 4 4 4 4 3 3 3 3 3 3 3 3 3 3 3 3 2 2 2 2 2 1 1 1 1
6 6 6 6 6 5 5 5 5 5 4 4 4 4 4 4 3 3 3 3 3 3 3 3 3 3 3 2 2 2 2 1 1 1 1 1 1 1
6 6 6 5 5 5 5 5 4 4 4 4 4 4 3 3 3 3 3 3 3 3 2 2 2 2 2 2 2 2 1 1 1 1 1 1 1 1
5 5 5 5 5 4 4 4 4 4 4 4 3 3 3 3 3 2 2 2 2 2 2 2 2 2 2 2 1 1 1 1 1 1 0 0 0 0
5 5 5 5 4 4 4 4 4 4 4 3 3 3 3 3 2 2 2 2 1 2 1 1 1 1 2 1 1 1 1 1 0 0 0 0 0 -0
4 4 4 4 4 4 3 3 3 3 3 3 3 3 2 2 2 2 1 1 1 1 1 1 1 1 1 1 1 1 1 0 0 0 0 -0 -0 -0
4 4 4 4 3 3 3 3 3 3 3 3 3 2 2 2 2 1 1 1 1 1 0 0 1 1 1 1 1 1 0 0 0 0 -0 -0 -0 -0
3 3 3 3 3 3 3 3 3 3 2 2 2 2 2 2 1 1 1 1 0 0 0 0 0 0 1 1 1 1 0 0 -0 -0 -0 -0 -1 -1
2 2 3 3 3 2 2 2 2 2 2 2 2 2 2 2 1 1 1 0 -0 -0 0 0 0 -0 -0 0 1 0 0 -0 -0 -0 -0 -1 -1 -1
2 2 2 2 2 2 2 2 2 2 1 2 2 2 1 1 1 1 0 0 0 0 0 -0 -0 -0 -1 -1 0 0 -0 -0 -0 -0 -1 -1 -1 -1
2 2 2 2 2 2 1 1 1 1 1 1 1 1 1 1 1 1 0 0 0 0 0 -0 -0 -0 -1 -1 -1 -0 -0 -0 -0 -1 -1 -1 -1 -1
1 1 1 1 1 1 1 1 1 1 1 1 1 1 0 0 0 0 0 0 0 0 0 -0 -0 -0 -1 -1 -1 -1 -0 -0 -0 -1 -1 -1 -1 -1
1 1 1 1 1 0 0 0 0 0 0 0 0 0 0 0 0 0 0 -0 0 0 -0 -0 -0 -1 -1 -1 -1 -1 -1 -1 -1 -1 -1 -1 -1 -1
-0 0 0 0 0 0 0 0 -0 -0 -0 -0 -0 -0 -0 -0 -0 -0 -0 -0 -0 -0 -0 -0 -0 -1 -1 -1 -1 -1 -1 -1 -1 -1 -1 -1 -1 -1
-1 -1 -1 -1 -1 -1 -0 -0 -0 -0 -1 -1 -1 -0 -0 -0 -1 -1 -1 -1 -1 -1 -1 -1 -1 -1 -1 -1 -1 -1 -1 -2 -1 -1 -1 -1 -1 -1
-1 -2 -2 -2 -1 -1 -1 -1 -1 -1 -1 -1 -1 -1 -1 -1 -1 -1 -1 -1 -1 -1 -1 -1 -1 -1 -2 -2 -1 -2 -2 -2 -2 -2 -2 -2 -2 -1
-2 -2 -2 -2 -2 -2 -2 -2 -1 -1 -1 -1 -1 -1 -1 -1 -1 -1 -1 -1 -1 -1 -1 -1 -1 -1 -2 -2 -2 -2 -2 -2 -2 -2 -2 -2 -1 -1
-2 -2 -2 -2 -2 -2 -2 -2 -2 -2 -1 -1 -1 -1 -1 -1 -1 -1 -1 -1 -1 -2 -1 -1 -1 -2 -2 -2 -2 -2 -2 -2 -2 -2 -2 -2 -2 -1
-3 -3 -3 -3 -3 -2 -2 -2 -2 -2 -2 -2 -2 -2 -2 -2 -2 -2 -2 -2 -2 -2 -2 -1 -1 -2 -2 -2 -2 -2 -2 -2 -2 -2 -2 -2 -3 -2
-3 -3 -3 -3 -3 -3 -3 -2 -2 -2 -2 -2 -2 -2 -2 -2 -2 -2 -2 -2 -2 -2 -2 -2 -2 -2 -2 -2 -2 -2 -2 -2 -2 -2 -2 -2 -2 -2
Wind_Speed
4 4 3 2 2 2 3 4 4 2 3 2 1 2 1 1 3 3 4 6 8 8 9 8 9 10 11 11 12 12 12 13 14 14 14 15 16 17
3 4 3 2 3 3 3 2 3 4 3 2 2 2 2 2 3 3 4 7 7 8 9 9 9 10 10 11 11 12 12 13 13 14 14 15 16 17
3 4 3 3 2 3 3 2 3 3 3 2 2 2 2 2 2 3 4 5 6 8 9 9 9 10 10 10 11 11 12 12 13 14 15 16 16 17
4 4 3 3 2 2 3 3 3 3 3 3 2 2 2 2 2 2 4 5 5 7 9 9 9 9 9 10 11 11 11 12 13 14 15 16 16 17
5 5 4 4 3 2 3 3 3 2 2 2 2 2 2 1 1 3 3 3 4 6 7 7 8 8 10 10 10 11 11 12 13 14 14 15 16 16
4 4 4 5 5 4 4 4 3 3 2 2 2 2 2 2 1 2 3 3 4 5 6 7 7 9 10 9 10 10 11 12 13 14 14 14 15 16
3 3 3 4 5 4 4 4 4 3 3 2 2 2 2 2 2 2 3 3 4 3 3 4 5 5 6 8 9 10 11 12 12 13 14 14 14 15
3 2 2 3 4 4 5 4 4 5 4 3 3 3 4 3 2 2 2 3 3 2 3 4 3 4 5 5 9 11 11 12 12 13 13 14 14 14
3 3 2 2 2 2 2 2 3 4 5 5 4 5 4 4 3 3 3 3 4 3 4 5 3 4 5 7 9 10 11 11 12 13 13 14 14 14
4 4 3 3 3 3 2 2 2 2 3 3 4 4 4 4 4 3 3 2 3 3 2 4 4 4 6 6 9 9 11 12 12 13 13 13 14 14
3 3 3 4 4 3 3 2 1 2 2 2 3 2 3 3 2 1 1 2 4 3 1 1 2 4 4 4 6 9 10 11 12 13 14 14 13 13
2 2 4 4 4 4 3 3 3 2 1 1 1 1 0 1 2 2 2 2 3 3 2 1 2 3 3 3 3 5 7 10 12 13 13 14 14 10
2 2 2 3 4 4 3 3 3 2 1 1 0 0 1 1 1 2 1 2 3 3 2 1 2 1 2 4 4 4 5 5 7 9 12 13 13 10
2 2 2 2 3 3 2 2 2 1 1 1 1 0 0 1 2 2 2 1 1 3 3 2 2 2 3 4 4 4 4 5 5 6 8 11 12 12
1 1 2 2 2 1 1 2 2 1 1 1 1 1 1 1 1 1 2 2 3 2 2 2 2 2 2 3 4 4 4 4 4 5 6 6 6 7
1 1 2 2 1 1 1 1 1 1 1 1 1 1 1 1 1 1 1 2 2 2 3 2 1 2 2 3 3 4 4 4 5 6 6 6 6 6
1 1 1 1 1 1 1 1 0 0 0 0 0 0 1 1 2 2 1 1 1 2 3 3 3 1 2 3 3 4 4 4 5 6 5 6 5 5
2 2 1 1 1 1 1 0 1 1 1 1 1 1 1 1 1 2 1 1 1 2 2 3 3 3 2 2 2 3 3 4 5 5 4 5 6 5
2 1 1 1 1 1 1 1 1 1 1 1 1 1 1 1 1 1 1 1 1 2 2 2 2 2 3 4 3 2 3 4 5 4 4 4 5 7
1 1 1 1 1 1 1 1 1 1 1 1 1 1 1 1 1 1 1 1 1 2 2 2 2 2 2 3 3 4 5 4 4 5 5 4 5 8
0 1 1 1 1 1 1 1 1 1 1 1 1 1 1 1 1 1 1 1 1 1 2 2 3 5 3 1 2 3 4 6 5 4 4 4 5 4
1 1 1 1 1 1 1 1 1 1 1 1 1 1 1 1 1 1 1 1 1 1 2 2 3 2 2 1 3 4 5 6 7 8 6 5 3 3
1 1 1 1 1 1 1 2 2 1 1 1 1 1 1 1 1 1 1 0 0 1 2 2 2 2 2 2 2 3 5 6 5 5 5 8 7 7
Wind_Direction
190 188 188 195 179 183 179 175 169 208 246 251 246 230 234 265 282 291 299 309 317 319 324 326 326 325 325 325 324 326 328 329 328 328 329 328 327 328
188 185 190 188 178 179 188 189 177 184 225 249 254 250 262 278 289 298 298 307 313 316 318 319 320 323 325 324 323 327 329 328 328 329 328 328 327 327
184 185 193 183 179 183 183 184 182 176 213 269 271 259 254 258 291 296 300 296 299 309 313 314 318 322 321 323 326 326 328 330 329 328 328 328 326 326
190 186 194 178 180 189 186 189 191 189 188 234 273 265 254 245 263 289 302 301 299 305 311 312 316 321 324 326 325 327 329 330 329 329 329 328 328 327
192 192 192 174 193 195 192 195 195 190 183 202 253 270 277 264 288 301 306 304 305 310 318 318 319 322 323 324 327 329 330 330 329 329 329 328 328 328
196 194 195 194 201 200 200 199 187 182 182 199 234 258 275 270 264 293 313 315 316 317 314 315 315 319 322 326 328 328 329 330 330 330 329 330 329 327
197 199 204 207 206 205 206 200 188 188 189 204 232 258 269 266 265 272 293 309 310 305 308 312 316 321 323 322 324 325 326 328 330 332 332 332 330 329
196 200 213 201 205 218 223 219 204 194 199 210 229 237 250 253 257 262 284 305 302 310 314 304 312 308 314 320 320 323 324 329 332 333 333 332 331 331
195 192 207 210 204 202 223 244 247 246 225 211 222 233 235 233 236 258 269 282 284 293 305 295 302 299 307 312 318 323 328 331 332 332 332 332 333 331
202 198 200 209 206 189 192 213 253 272 259 238 220 230 231 227 228 243 259 294 302 294 289 288 299 297 304 311 312 321 327 331 334 335 336 337 337 333
209 200 198 206 206 187 177 185 236 301 317 286 271 255 247 239 224 192 246 297 306 301 279 271 295 305 298 296 312 322 328 333 336 337 339 340 337 334
207 209 209 205 200 192 185 184 209 249 249 10 7 6 11 223 272 229 212 244 287 285 255 276 297 322 312 295 307 323 330 329 333 337 339 339 338 338
211 221 219 204 199 198 197 199 212 201 183 169 136 45 17 10 347 333 270 236 252 260 249 250 281 287 280 298 303 308 321 324 330 333 335 336 337 338
208 209 204 194 195 193 192 178 159 127 139 147 148 200 292 311 329 342 348 350 283 260 250 244 254 264 288 298 298 311 316 320 328 329 332 330 332 332
189 185 176 174 171 166 151 138 131 137 155 172 203 259 280 277 313 336 349 17 14 344 307 269 260 269 267 280 294 306 313 314 326 329 328 327 326 330
160 145 134 124 102 94 107 107 127 177 193 205 227 276 319 319 315 319 305 324 340 335 342 356 325 256 277 287 287 300 306 308 322 327 323 321 322 325
138 119 108 122 113 86 67 39 110 142 201 228 207 274 321 333 327 327 305 310 314 318 331 336 342 335 258 265 291 297 307 310 310 322 325 324 319 323
122 139 155 161 177 176 182 252 252 210 217 227 237 248 268 287 316 325 319 310 320 331 325 323 330 336 342 315 257 284 303 307 314 319 321 322 319 323
122 151 175 194 204 202 221 234 244 245 227 228 245 252 255 271 291 302 318 336 344 330 320 320 325 331 332 321 309 298 300 315 319 320 318 308 304 310
130 174 196 206 217 224 231 242 248 244 241 248 261 252 236 248 288 291 292 310 322 322 321 324 326 318 287 281 286 303 314 310 313 315 315 305 297 302
277 238 215 217 228 233 234 233 234 233 240 248 265 265 240 203 242 270 277 284 312 310 312 312 304 310 304 309 315 319 321 326 321 309 311 316 320 329
287 274 258 252 238 231 232 224 230 231 224 240 262 273 269 234 220 221 231 248 288 297 303 313 327 337 354 352 326 321 326 332 338 338 330 319 309 322
288 280 266 251 243 237 230 220 219 229 227 229 241 255 257 257 246 216 217 230 282 321 330 333 345 358 351 337 331 332 336 338 341 346 342 342 332 312
Height
1480 1481 1482 1483 1484 1485 1487 1487 1488 1487 1487 1488 1489 1489 1489 1489 1488 1487 1486 1484 1483 1481 1479 1477 1475 1472 1469 1467 1464 1462 1459 1456 1454 1451 1448 1445 1442 1439
1477 1478 1478 1479 1480 1482 1483 1484 1485 1485 1484 1484 1485 1485 1485 1485 1485 1484 1483 1481 1479 1477 1475 1473 1471 1468 1465 1463 1460 1458 1455 1453 1450 1447 1444 1441 1438 1436
1473 1474 1475 1476 1477 1478 1480 1480 1481 1482 1481 1481 1482 1482 1482 1481 1481 1480 1479 1477 1476 1474 1472 1469 1467 1465 1462 1459 1457 1454 1452 1449 1446 1443 1440 1437 1435 1432
1469 1470 1472 1473 1474 1475 1476 1477 1477 1478 1478 1477 1478 1478 1478 1478 1477 1476 1475 1474 1472 1470 1468 1466 1463 1461 1458 1456 1453 1451 1448 1445 1443 1440 1437 1434 1431 1427
1466 1467 1468 1469 1470 1471 1472 1473 1474 1475 1475 1475 1474 1474 1474 1474 1473 1472 1471 1470 1468 1466 1464 1462 1460 1458 1455 1453 1450 1447 1445 1442 1439 1436 1433 1430 1427 1423
1463 1464 1465 1467 1468 1468 1469 1470 1470 1471 1471 1471 1471 1470 1470 1470 1469 1467 1466 1465 1464 1463 1461 1459 1457 1454 1452 1449 1447 1444 1441 1438 1436 1433 1430 1427 1423 1420
1459 1461 1462 1464 1464 1465 1466 1466 1467 1467 1467 1467 1467 1466 1466 1465 1465 1464 1462 1461 1460 1459 1457 1456 1453 1451 1449 1446 1444 1441 1438 1435 1432 1429 1426 1423 1420 1416
1456 1457 1458 1460 1461 1462 1462 1463 1463 1463 1463 1463 1463 1462 1462 1462 1461 1460 1459 1457 1455 1455 1454 1452 1450 1448 1446 1443 1441 1438 1435 1432 1429 1426 1423 1420 1417 1413
1453 1454 1455 1456 1457 1458 1458 1459 1460 1460 1461 1461 1460 1459 1459 1459 1458 1457 1456 1455 1453 1452 1451 1448 1447 1444 1442 1440 1438 1436 1433 1430 1427 1424 1421 1417 1414 1410
1449 1450 1451 1452 1453 1454 1455 1455 1456 1456 1457 1457 1457 1456 1456 1456 1455 1455 1453 1452 1451 1450 1449 1445 1443 1441 1439 1438 1435 1433 1430 1427 1424 1421 1418 1415 1411 1408
1446 1447 1448 1449 1450 1451 1452 1452 1452 1453 1453 1454 1454 1453 1452 1452 1452 1451 1450 1449 1447 1446 1446 1444 1441 1438 1436 1434 1433 1431 1428 1425 1422 1419 1416 1412 1409 1405
1443 1444 1446 1446 1447 1448 1449 1448 1449 1449 1449 1449 1450 1449 1449 1449 1449 1449 1448 1446 1445 1444 1442 1441 1439 1437 1433 1431 1430 1428 1426 1423 1420 1417 1413 1410 1406 1403
1440 1441 1443 1444 1444 1445 1446 1446 1447 1447 1446 1446 1446 1446 1446 1446 1446 1446 1445 1444 1443 1441 1441 1439 1437 1435 1434 1430 1427 1426 1424 1421 1418 1415 1412 1408 1405 1401
1438 1439 1440 1441 1442 1443 1443 1444 1444 1444 1444 1443 1443 1443 1443 1443 1443 1443 1442 1442 1441 1440 1438 1437 1435 1434 1432 1429 1426 1424 1422 1419 1416 1413 1410 1407 1403 1400
1435 1437 1438 1439 1440 1440 1441 1441 1441 1441 1441 1441 1441 1441 1441 1440 1440 1440 1439 1439 1438 1437 1436 1435 1433 1432 1430 1428 1425 1422 1420 1417 1414 1411 1408 1405 1401 1398
1433 1434 1435 1436 1437 1438 1438 1439 1439 1439 1440 1439 1439 1439 1439 1438 1438 1437 1436 1436 1435 1434 1434 1433 1431 1430 1428 1426 1424 1421 1419 1416 1413 1410 1407 1404 1401 1397
1431 1431 1432 1433 1434 1435 1436 1437 1437 1437 1437 1438 1437 1437 1436 1436 1435 1435 1435 1434 1433 1432 1431 1430 1429 1428 1426 1425 1422 1420 1418 1415 1413 1409 1406 1403 1400 1397
1428 1429 1429 1430 1432 1433 1433 1434 1434 1435 1435 1435 1435 1435 1434 1434 1434 1433 1433 1432 1431 1430 1429 1428 1427 1426 1425 1423 1422 1419 1417 1414 1412 1409 1406 1402 1399 1396
1426 1426 1427 1428 1430 1431 1431 1432 1432 1433 1433 1433 1433 1433 1433 1432 1432 1432 1431 1430 1430 1429 1428 1427 1426 1424 1423 1421 1420 1419 1416 1413 1410 1408 1405 1402 1398 1395
1424 1424 1425 1426 1427 1428 1429 1430 1430 1431 1431 1431 1431 1431 1431 1431 1431 1430 1430 1429 1428 1427 1427 1426 1425 1423 1422 1421 1419 1417 1415 1412 1409 1406 1404 1401 1398 1396
1422 1423 1423 1424 1425 1426 1427 1428 1428 1428 1429 1429 1429 1429 1429 1429 1429 1429 1428 1428 1427 1426 1425 1424 1424 1423 1422 1420 1418 1415 1414 1412 1409 1406 1403 1400 1397 1394
1421 1421 1422 1422 1423 1424 1424 1425 1425 1426 1426 1427 1427 1427 1428 1428 1427 1427 1427 1426 1426 1425 1424 1424 1423 1422 1421 1419 1417 1415 1413 1411 1409 1406 1403 1401 1398 1394
1419 1420 1420 1421 1421 1422 1422 1423 1423 1424 1424 1425 1425 1425 1426 1426 1426 1425 1425 1425 1425 1424 1423 1422 1422 1421 1419 1418 1416 1414 1412 1410 1408 1405 1403 1401 1399 1396